SSEC Globe Logo

Space Science and Engineering Center

Wisconsin State Observations

ASUS43 KMKX 150921                                              2019288 0921
RWRWI
WISCONSIN REGIONAL WEATHER ROUNDUP
NATIONAL WEATHER SERVICE MILWAUKEE/SULLIVAN WI
NOTE: "FAIR" INDICATES FEW OR NO CLOUDS BELOW 12,000 FEET WITH NO
SIGNIFICANT WEATHER AND/OR OBSTRUCTIONS TO VISIBILITY.

CITY           SKY/WX    TMP DP  RH WIND       PRES   REMARKS
SUPERIOR ARPT  FAIR      31  31  99 CALM      29.90F
ASHLAND        FAIR      28  27  96 CALM      29.91F
HAYWARD        CLOUDY    36  33  89 N6        29.87F WCI  31
SIREN          LGT RAIN  39  34  82 NE6       29.83F
CUMBERLAND     TSTM      37  34  87 E5        29.86R WCI  34
RICE LAKE      TSTM      42  25  50 W3        29.88R
CHETEK         LGT RAIN  41  36  82 MISG      29.85F
LADYSMITH      MOCLDY    41  34  76 E8        29.87F
EAU CLAIRE     CLOUDY    44  35  70 E10       29.82F
MENOMONIE      CLOUDY    40  35  81 NE6       29.81F
NEW RICHMOND   LGT RAIN  41  37  86 E7        29.82F
OSCEOLA        CLOUDY    42  40  95 E10       29.82F


CITY           SKY/WX    TMP DP  RH WIND       PRES   REMARKS
MANITOWISH WTR CLOUDY    33  33 100 CALM      29.90F
ARBOR VITAE    CLOUDY    38  35  90 SE3       29.91F
WOODRUFF       CLOUDY    38  35  90 SE3       29.91F
RHINELANDER    CLOUDY    35  33  92 CALM      29.92F
EAGLE RIVER    CLOUDY    31  31 100 CALM      29.92F
LAND O LAKES   MOCLDY    29  29  99 CALM      29.93F
PHILLIPS       CLOUDY    37  33  85 SE3       29.89F
TOMAHAWK       CLOUDY    35  32  90 CALM      29.91F
MEDFORD        CLOUDY    39  33  78 SE5       29.88F
MERRILL        CLOUDY    37  35  95 SE3       29.92F


CITY           SKY/WX    TMP DP  RH WIND       PRES   REMARKS
WAUSAU         CLOUDY    38  33  82 E5        29.91F WCI  34
MOSINEE        MOCLDY    37  32  81 E6        29.91F WCI  33
MARSHFIELD     CLOUDY    40  34  79 E7        29.88F
STEVENS POINT  CLOUDY    36  34  92 SE6       29.91F WCI  31
WAUPACA        FAIR      35  33  95 CALM      29.94F
WAUTOMA        CLOUDY    33  32  96 CALM      29.94F
WISC RAPIDS    CLOUDY    40  33  76 SE7       29.91F
CAMP DOUGLAS   MOCLDY    38  38  99 SE7       29.88F WCI  33


CITY           SKY/WX    TMP DP  RH WIND       PRES   REMARKS
ANTIGO         CLOUDY    36  33  88 SE3       29.93F
SHAWANO        FAIR      37  35  90 CALM      29.96F
OCONTO         CLOUDY    37  35  93 CALM      29.98F
STURGEON BAY   CLOUDY    42  33  70 S6        30.00F
GREEN BAY      FAIR      37  33  85 CALM      29.99F
MANITOWOC      FAIR      33  32  96 CALM      30.00F
APPLETON       FAIR      37  32  81 E3        29.93F
CLINTONVILLE   CLOUDY    36  33  89 CALM      29.95F
OSHKOSH        FAIR      37  32  82 S5        29.96F WCI  33


CITY           SKY/WX    TMP DP  RH WIND       PRES   REMARKS
LA CROSSE      FAIR      43  36  76 SE6       29.83F
SPARTA         MOCLDY    35  34  94 CALM      29.85F
VIROQUA        MOCLDY    42  37  82 SE10      29.83F
BOSCOBEL       MOCLDY    40  37  89 VRB3      29.87F
PRAIRIE DU CHI CLOUDY    48  36  64 E7        29.84F
PLATTEVILLE    CLOUDY    43  39  86 E10       29.87F

CITY           SKY/WX    TMP DP  RH WIND       PRES   REMARKS
REEDSBURG      CLOUDY    39  37  94 CALM      29.87F
BARABOO/DELLS  FAIR      43  36  76 S6        29.89F
LONE ROCK      FAIR      43  36  76 E7        29.90F
MINERAL POINT  MOCLDY    43  36  75 SE10      29.88F
MADISON        FAIR      41  35  79 SE6       29.93F
MIDDLETON      FAIR      42  35  77 CALM      29.93F
WATERTOWN      FAIR      39  36  87 CALM      29.95S
MONROE         FAIR      42  35  76 SE8       29.91F
JANESVILLE     FAIR      39  36  87 E3        29.94F


CITY           SKY/WX    TMP DP  RH WIND       PRES   REMARKS
MILWAUKEE      MOCLDY    43  38  82 S7        29.99F
WAUKESHA       FAIR      37  32  81 SE5       29.99S WCI  34
MILWAUKEE/TIMM FAIR      34  32  93 CALM      29.99F
RACINE         FAIR      44  41  89 SE6       30.01F
KENOSHA        NOT AVBL
FOND DU LAC    FAIR      37  33  85 SE5       29.96F WCI  33
SHEBOYGAN      FAIR      32  30  92 E3        29.99F
WEST BEND      FAIR      32  32 100 CALM      29.98F
JUNEAU         FAIR      38  35  89 SE3       29.96F
LSZ147-162-151000-
LAKE SUPERIOR

STATION/POSITION TIME  TEMP    WIND        PRES    WAVE
                       AIR SEA DIR/SP/G            HT/PER
                 (UTC) (F)     (DEG/KT/KT) (MB)    (FT/S)
W MID LAKE BUOY  0850   45 45  120/  4/  4 1013.8F   1
DEVILS ISLAND    0900   45      90/ 14/ 15 1013.0F
SAXON HARBOR     0840   37     190/  6/  8 1012.5F

LMZ867-665-643>646-151000-
LAKE MICHIGAN

STATION/POSITION TIME  TEMP    WIND        PRES    WAVE
                       AIR SEA DIR/SP/G            HT/PER
                 (UTC) (F)     (DEG/KT/KT) (MB)    (FT/S)
CHAMBERS ISLAND  0840   47     140/  3/  7   N/A
N MID LAKE BUOY  0900   51     220/ 12/ 14 1017.6
NORTHPORT PIER   0840   41     160/  2/  4 1015.9F
KEWAUNEE LAKESHO 0848   40      CALM  /  1 1015.3F
SHEBOYGAN LAKESH 0900   42     100/  2/  2 1016.0F
PORT WASHINGTON  0840   43      CALM  /  2 1016.6F
S MID LAKE BUOY  0900      58  170/ 14/ 17   N/A
KENOSHA   LAKESH 0900   49     160/ 12/ 14 1015.9
TC  - TEMPERATURE IN CELSIUS
VSB - VISIBILITY IN STATUTE MILES
WCI - WIND CHILL INDEX
HX  - HEAT INDEX